EW5682 Weather Reports


time (UTC)temp
C
wind
direction
speed
KPH
gust
KPH
rain 1hr
cm
rain 24hr
cm
rain mn
cm
humidity
%
barometer
mb
20260502232045 14 321 0.0 0.0 0.00 1.12 0.03 82 1014.5
20260502231545 14 321 0.0 0.0 0.00 1.12 0.03 82 1014.6
20260502231039 14 321 0.0 0.0 0.03 1.12 0.03 82 1014.5
20260502230539 14 321 0.0 0.0 0.03 1.12 0.03 82 1014.6
20260502230039 14 321 0.0 0.0 0.03 1.12 0.03 82 1014.7
20260502225539 14 321 0.0 0.0 0.03 1.12 0.03 82 1014.7
20260502225039 14 321 0.0 0.0 0.03 1.12 0.03 82 1014.7
20260502224542 14 321 0.0 1.6 0.03 1.12 0.03 82 1014.8
20260502224036 14 321 0.0 1.6 0.03 1.12 0.03 82 1014.9
20260502223531 14 321 0.0 1.6 0.03 1.12 0.03 82 1014.9
20260502223033 14 321 0.0 4.8 0.03 1.12 0.03 82 1014.8
20260502222527 14 321 0.0 4.8 0.03 1.12 0.03 82 1015.0
20260502222014 14 321 0.0 8.0 0.03 1.12 0.03 82 1014.7
20260502221506 14 319 0.0 8.0 0.03 1.12 0.03 82 1015.0
20260502221003 14 329 3.2 8.0 0.00 1.09 0.00 82 1014.9
20260502220501 14 166 0.0 9.7 0.00 1.09 0.00 82 1014.7
20260502220006 14 334 4.8 9.7 0.00 1.09 1.09 82 1015.0
20260502215502 14 65 0.0 0.0 0.00 1.09 1.09 83 1014.6
20260502215003 14 65 0.0 0.0 0.00 1.09 1.09 83 1014.6
20260502214503 14 65 0.0 0.0 0.00 1.09 1.09 82 1014.7
20260502214002 14 65 0.0 1.6 0.00 1.09 1.09 82 1014.7
20260502213503 14 65 0.0 1.6 0.00 1.09 1.09 82 1014.7
20260502213059 14 65 0.0 1.6 0.00 1.09 1.09 82 1014.7
20260502212553 14 65 0.0 1.6 0.00 1.09 1.09 81 1014.7
20260502212049 14 65 0.0 1.6 0.00 1.09 1.09 81 1014.8
20260502211548 13 62 0.0 0.0 0.00 1.09 1.09 82 1014.8
20260502211036 13 62 0.0 0.0 0.00 1.09 1.09 83 1014.8
20260502210531 13 62 0.0 0.0 0.00 1.09 1.09 84 1014.9
20260502210021 14 62 0.0 1.6 0.00 1.09 1.09 84 1014.8
20260502205512 14 62 0.0 0.0 0.00 1.09 1.09 84 1014.8
20260502205009 14 62 0.0 0.0 0.00 1.09 1.09 83 1014.8
20260502204502 14 62 0.0 1.6 0.00 1.09 1.09 84 1014.8
20260502204059 15 62 0.0 1.6 0.00 1.09 1.09 84 1014.9
20260502203555 15 62 0.0 1.6 0.00 1.09 1.09 84 1014.9
20260502203053 15 61 0.0 3.2 0.00 1.09 1.09 83 1015.0
20260502202549 15 61 0.0 6.4 0.00 1.09 1.09 83 1014.9
20260502202048 15 350 0.0 6.4 0.00 1.09 1.09 83 1015.0
20260502201547 15 350 0.0 4.8 0.00 1.09 1.09 83 1014.9
20260502201041 15 350 0.0 4.8 0.00 1.09 1.09 83 1015.0
20260502200534 15 5 0.0 3.2 0.00 1.09 1.09 83 1015.1
20260502200032 15 149 0.0 1.6 0.00 1.09 1.09 83 1015.2
20260502195525 15 149 0.0 4.8 0.00 1.09 1.09 83 1015.2
20260502195017 15 136 0.0 4.8 0.03 1.09 1.09 83 1015.3
20260502194514 15 84 0.0 1.6 0.05 1.09 1.09 83 1015.2
20260502194010 15 84 0.0 0.0 0.10 1.09 1.09 83 1015.1
20260502193602 15 84 0.0 1.6 0.10 1.09 1.09 84 1015.1
20260502193053 15 84 0.0 1.6 0.15 1.09 1.09 84 1015.0
20260502192550 15 84 0.0 1.6 0.15 1.09 1.09 84 1015.1
20260502192044 15 84 0.0 1.6 0.15 1.09 1.09 84 1015.1
20260502191541 15 85 0.0 3.2 0.15 1.09 1.09 84 1015.1
20260502191036 15 68 0.0 3.2 0.15 1.09 1.09 84 1015.0
20260502190530 15 61 0.0 4.8 0.18 1.09 1.09 84 1015.0
20260502190032 15 49 0.0 4.8 0.20 1.09 1.09 84 1015.2
20260502185520 15 34 0.0 3.2 0.23 1.09 1.09 84 1015.3
20260502185015 15 18 0.0 6.4 0.20 1.09 1.09 84 1015.4
20260502184515 15 15 1.6 6.4 0.20 1.07 1.07 84 1015.6
20260502184016 15 355 1.6 6.4 0.15 0.99 0.99 84 1015.7
20260502183509 15 5 3.2 8.0 0.25 0.99 0.99 84 1015.7
20260502183009 15 5 3.2 6.4 0.69 0.97 0.97 84 1015.9
20260502182507 15 30 1.6 9.7 0.79 0.97 0.97 84 1015.8
20260502182005 15 305 0.0 9.7 0.79 0.94 0.94 84 1016.0
20260502181503 15 35 1.6 4.8 0.81 0.94 0.94 84 1015.8
20260502181005 15 74 1.6 6.4 0.81 0.94 0.94 84 1015.8
20260502180503 15 68 0.0 6.4 0.79 0.91 0.91 85 1016.0
20260502164042 21 46 0.0 1.6 0.13 0.13 0.13 77 1015.2
20260502163542 22 46 0.0 4.8 0.13 0.13 0.13 72 1015.2
20260502163042 22 46 0.0 4.8 0.10 0.10 0.10 69 1015.2
20260502162543 23 35 1.6 4.8 0.00 0.00 0.00 64 1015.4
20260502162039 24 130 0.0 4.8 0.00 0.00 0.00 62 1015.5
20260502161539 25 167 0.0 4.8 0.00 0.00 0.00 62 1015.5
20260502161038 25 168 0.0 4.8 0.00 0.00 0.00 57 1015.6
20260502160536 25 229 0.0 4.8 0.00 0.00 0.00 53 1015.5
20260502152030 25 277 3.2 4.8 0.00 0.00 0.00 53 1015.9
20260502151528 25 290 0.0 8.0 0.00 0.00 0.00 52 1016.0
20260502151028 26 293 4.8 8.0 0.00 0.00 0.00 51 1016.2
20260502150524 26 290 0.0 8.0 0.00 0.00 0.00 52 1016.3
20260502130502 23 265 1.6 12.9 0.00 0.00 0.00 58 1017.9
20260502123502 24 263 6.4 14.5 0.00 0.00 0.00 58 1018.2
20260502123002 23 273 4.8 12.9 0.00 0.00 0.00 60 1018.2
20260502122502 23 309 6.4 12.9 0.00 0.00 0.00 61 1018.3
20260502122002 23 275 4.8 12.9 0.00 0.00 0.00 58 1018.5
20260502121503 23 302 4.8 14.5 0.00 0.00 0.00 59 1018.6
20260502121004 23 294 4.8 14.5 0.00 0.00 0.00 60 1018.7
20260502120501 23 305 4.8 14.5 0.00 0.00 0.00 59 1018.7
20260502115502 24 311 3.2 14.5 0.00 0.00 0.00 59 1018.7
20260502115004 23 290 3.2 14.5 0.00 0.00 0.00 60 1018.8
20260502114502 23 300 3.2 9.7 0.00 0.00 0.00 59 1018.9
20260502114002 23 289 3.2 9.7 0.00 0.00 0.00 60 1018.9
20260502113502 23 195 3.2 12.9 0.00 0.00 0.00 59 1018.9
20260502113007 23 299 3.2 14.5 0.00 0.00 0.00 60 1019.1
20260502112503 23 238 4.8 14.5 0.00 0.00 0.00 59 1019.1
20260502112002 23 298 1.6 11.3 0.00 0.00 0.00 59 1019.2
20260502111502 23 307 3.2 17.7 0.00 0.00 0.00 60 1019.2
20260502111002 23 238 3.2 17.7 0.00 0.00 0.00 58 1019.2
20260502110502 23 296 3.2 11.3 0.00 0.00 0.00 60 1019.2
20260502110003 23 220 1.6 11.3 0.00 0.00 0.00 59 1019.3
20260502105504 23 295 3.2 16.1 0.00 0.00 0.00 59 1019.4
20260502105003 23 214 6.4 16.1 0.00 0.00 0.00 60 1019.4
20260502104502 23 296 4.8 11.3 0.00 0.00 0.00 59 1019.5
20260502104002 23 249 3.2 14.5 0.00 0.00 0.00 60 1019.5
20260502103502 23 273 8.0 14.5 0.00 0.00 0.00 60 1019.6
20260502103003 22 219 3.2 14.5 0.00 0.00 0.00 60 1019.6
20260502102504 22 238 0.0 11.3 0.00 0.00 0.00 58 1019.7
20260502102003 22 299 3.2 16.1 0.00 0.00 0.00 58 1019.8
20260502101502 22 310 6.4 16.1 0.00 0.00 0.00 60 1019.8
20260502101056 22 215 1.6 11.3 0.00 0.00 0.00 60 1019.8
20260502100544 22 224 1.6 14.5 0.00 0.00 0.00 61 1019.8
20260502091029 21 231 1.6 6.4 0.00 0.00 0.00 60 1020.3
20260502090531 21 245 0.0 8.0 0.00 0.00 0.00 58 1020.3
20260502080107 18 202 0.0 1.6 0.00 0.00 0.00 68 1020.6
20260502071520 15 202 0.0 1.6 0.00 0.00 0.00 71 1020.8
20260502071014 15 202 0.0 1.6 0.00 0.00 0.00 71 1020.7
20260502070512 15 202 0.0 1.6 0.00 0.00 0.00 71 1020.7
20260502070020 15 202 0.0 1.6 0.00 0.00 0.00 70 1020.8
20260502065511 15 202 0.0 1.6 0.00 0.00 0.00 69 1020.7
20260502065015 15 202 0.0 0.0 0.00 0.00 0.00 68 1020.9
20260502064520 15 202 0.0 1.6 0.00 0.00 0.00 67 1020.8
20260502064006 15 202 0.0 1.6 0.00 0.00 0.00 67 1020.8
20260502063502 15 202 0.0 3.2 0.00 0.00 0.00 66 1020.8
20260502063004 15 202 0.0 3.2 0.00 0.00 0.00 67 1020.8
20260502062503 15 203 0.0 1.6 0.00 0.00 0.00 68 1020.8
20260502062004 15 203 0.0 3.2 0.00 0.00 0.00 69 1020.7
20260502061502 14 203 0.0 3.2 0.00 0.00 0.00 69 1020.7
20260502061001 13 203 0.0 1.6 0.00 0.00 0.00 71 1020.7
20260502060501 13 205 0.0 1.6 0.00 0.00 0.00 72 1020.8
20260502060005 13 205 0.0 0.0 0.00 0.00 0.00 72 1020.7
20260502055501 13 205 0.0 0.0 0.00 0.00 0.00 71 1020.7
20260502055002 12 205 0.0 0.0 0.00 0.00 0.00 71 1020.7
20260502054502 12 205 0.0 0.0 0.00 0.00 0.00 71 1020.7
20260502054004 12 205 0.0 0.0 0.00 0.00 0.00 70 1020.7
20260502053504 12 205 0.0 1.6 0.00 0.00 0.00 70 1020.6
20260502053003 12 205 0.0 1.6 0.00 0.00 0.00 70 1020.7
20260502052502 12 205 0.0 1.6 0.00 0.00 0.00 69 1020.7
20260502052002 12 205 0.0 1.6 0.00 0.00 0.00 69 1020.6
20260502051002 12 205 0.0 3.2 0.00 0.00 0.00 69 1020.8
20260502050502 12 207 0.0 3.2 0.00 0.00 0.00 70 1020.6
20260502050002 12 207 0.0 3.2 0.00 0.00 0.00 71 1020.7
20260502045502 11 207 0.0 3.2 0.00 0.00 0.00 72 1020.6
20260502045003 11 207 0.0 3.2 0.00 0.00 0.00 71 1020.6
20260502044503 11 207 0.0 1.6 0.00 0.00 0.00 74 1020.4
20260502044002 11 207 0.0 1.6 0.00 0.00 0.00 73 1020.5
20260502043502 11 207 0.0 1.6 0.00 0.00 0.00 75 1020.4
20260502043002 11 207 0.0 1.6 0.00 0.00 0.00 75 1020.5
20260502042502 11 207 0.0 3.2 0.00 0.00 0.00 73 1020.5
20260502042002 11 207 0.0 3.2 0.00 0.00 0.00 74 1020.4
20260502041502 10 207 0.0 3.2 0.00 0.00 0.00 74 1020.5
20260502041001 10 275 0.0 3.2 0.00 0.00 0.00 76 1020.4
20260502040504 9 275 0.0 3.2 0.00 0.00 0.00 79 1020.5
20260502040007 8 275 0.0 3.2 0.00 0.00 0.00 81 1020.6
20260502035502 8 275 0.0 0.0 0.00 0.00 0.00 82 1020.7
20260502035002 8 275 0.0 0.0 0.00 0.00 0.00 82 1020.8
20260502034503 8 275 0.0 1.6 0.00 0.00 0.00 83 1020.9
20260502034001 8 275 0.0 1.6 0.00 0.00 0.00 83 1021.1
20260502033501 8 275 0.0 1.6 0.00 0.00 0.00 83 1020.9
20260502033003 7 275 0.0 1.6 0.00 0.00 0.00 83 1021.0
20260502032502 7 275 0.0 1.6 0.00 0.00 0.00 82 1020.9
20260502032002 7 275 0.0 1.6 0.00 0.00 0.00 82 1021.0
20260502031502 7 275 0.0 1.6 0.00 0.00 0.00 83 1021.0
20260502031058 7 275 0.0 6.4 0.00 0.00 0.00 83 1021.0
20260502030550 7 275 0.0 6.4 0.00 0.00 0.00 84 1020.9
20260502030002 7 235 0.0 0.0 0.00 0.00 0.00 84 1020.8
20260502025501 7 235 0.0 0.0 0.00 0.00 0.00 84 1020.8
20260502025101 7 235 0.0 0.0 0.00 0.00 0.00 84 1020.9
20260502024554 7 235 0.0 0.0 0.00 0.00 0.00 83 1020.9
20260502024045 7 235 0.0 0.0 0.00 0.00 0.00 83 1020.9
20260502023540 7 235 0.0 0.0 0.00 0.00 0.00 83 1020.9
20260502023030 7 235 0.0 0.0 0.00 0.00 0.00 83 1020.9
20260502022530 6 235 0.0 0.0 0.00 0.00 0.00 83 1021.0
20260502022031 6 235 0.0 0.0 0.00 0.00 0.00 83 1021.0
20260502021529 6 235 0.0 0.0 0.00 0.00 0.00 83 1021.0
20260502021028 6 235 0.0 0.0 0.00 0.00 0.00 83 1021.1
20260502020522 6 235 0.0 0.0 0.00 0.00 0.00 83 1021.1
20260502020022 6 235 0.0 0.0 0.00 0.00 0.00 82 1021.1
20260502015514 7 235 0.0 0.0 0.00 0.00 0.00 82 1021.2
20260502015011 7 235 0.0 1.6 0.00 0.00 0.00 81 1021.1
20260502014502 7 235 0.0 1.6 0.00 0.00 0.00 81 1021.2
20260502014002 7 235 0.0 0.0 0.00 0.00 0.00 81 1021.2
20260502013501 7 235 0.0 0.0 0.00 0.00 0.00 80 1021.2
20260502013001 7 235 0.0 0.0 0.00 0.00 0.00 81 1021.2
20260502012502 7 235 0.0 0.0 0.00 0.00 0.00 81 1021.3
20260502012058 7 235 0.0 0.0 0.00 0.00 0.00 81 1021.4
20260502011608 7 235 0.0 0.0 0.00 0.00 0.00 80 1021.5
20260502011047 7 235 0.0 0.0 0.00 0.00 0.00 80 1021.5
20260502010541 7 235 0.0 3.2 0.00 0.00 0.00 80 1021.6
20260502010041 7 235 0.0 3.2 0.00 0.00 0.00 80 1021.7
20260502005534 7 235 0.0 0.0 0.00 0.00 0.00 79 1021.7
20260502005030 7 235 0.0 0.0 0.00 0.00 0.00 79 1021.6
20260502004540 7 235 0.0 0.0 0.00 0.00 0.00 79 1021.7
20260502004024 7 235 0.0 0.0 0.00 0.00 0.00 79 1021.7
20260502003519 7 235 0.0 0.0 0.00 0.00 0.00 78 1021.7
20260502003022 7 235 0.0 0.0 0.00 0.00 0.00 77 1021.7
20260502002514 8 235 0.0 0.0 0.00 0.00 0.00 76 1021.7
20260502002008 8 235 0.0 0.0 0.00 0.00 0.00 76 1021.8
20260502001506 8 235 0.0 0.0 0.00 0.00 0.00 75 1021.7
20260502001003 8 235 0.0 0.0 0.00 0.00 0.00 74 1021.8
20260502000502 8 235 0.0 1.6 0.00 0.00 0.00 74 1021.9
20260502000004 8 235 0.0 1.6 0.00 0.00 0.00 74 1021.9
20260501235504 8 235 0.0 0.0 0.00 0.00 0.00 73 1021.9
20260501235002 8 235 0.0 0.0 0.00 0.00 0.00 73 1022.0
20260501234501 8 235 0.0 1.6 0.00 0.00 0.00 73 1022.1
20260501234002 8 235 0.0 1.6 0.00 0.00 0.00 73 1022.1
20260501233600 8 235 0.0 1.6 0.00 0.00 0.00 73 1022.1
20260501233059 8 235 0.0 1.6 0.00 0.00 0.00 73 1022.1
20260501232553 9 235 0.0 1.6 0.00 0.00 0.00 72 1022.2